Regional Weather Roundup
Issued by NWS Little Rock, AR

Home | Current Version | Previous Version | Graphics & Text | Print | Product List | Glossary On
Versions: 1 2 3 4 5 6 7 8 9 10 11 12 13 14 15 16 17 18 19 20 21 22 23 24 25 26 27 28 29 30 31 32 33 34 35 36 37 38 39 40 41 42 43 44 45 46 47 48 49 50
000
ASUS44 KLZK 021905
RWRLZK

WEATHER ROUNDUP FOR ARKANSAS
NATIONAL WEATHER SERVICE LITTLE ROCK AR
200 PM CDT SUN AUG 02 2015

NOTE: "FAIR" INDICATES FEW OR NO CLOUDS BELOW 12,000 FEET WITH NO
SIGNIFICANT WEATHER AND/OR OBSTRUCTIONS TO VISIBILITY.

ARZ001-003-010-029-022000-
NORTHWEST ARKANSAS

CITY           SKY/WX    TMP DP  RH WIND       PRES   REMARKS
FAYETTEVILLE   MOSUNNY   88  67  49 SW10G17   29.99F HX  91
FORT SMITH     MOSUNNY   95  58  28 N6        29.94F HX  94
HARRISON       MOSUNNY   91  63  39 W7        29.99F HX  92
BENTONVILLE    MOSUNNY   90  61  37 SW12      30.00F HX  89
ROGERS         MOSUNNY   90  64  42 SW12      30.00F HX  91
SILOAM SPGS    SUNNY     90  63  40 W12       29.98F HX  90
HIGHFILL       SUNNY     91  65  41 SW12      29.99F HX  93
SPRINGDALE     MOSUNNY   90  61  37 SW13      30.02F HX  89
$$

ARZ004-005-016-022000-
NORTH CENTRAL ARKANSAS

CITY           SKY/WX    TMP DP  RH WIND       PRES   REMARKS
BATESVILLE     MOSUNNY   91  66  43 CALM      29.94F HX  94
FLIPPIN        SUNNY     93  61  33 SW6       29.94F HX  93
MTN HOME       SUNNY     91  66  43 VRB5      29.96F HX  93
$$

ARZ040-041-022000-
WEST CENTRAL ARKANSAS

CITY           SKY/WX    TMP DP  RH WIND       PRES   REMARKS
MENA           MOSUNNY   95  54  24 E3        29.98F HX  93
MOUNT IDA      MOSUNNY   94  55  26 VRB6      29.96F HX  92
$$

ARZ009-017-025-026-028-022000-
NORTHEAST ARKANSAS

CITY           SKY/WX    TMP DP  RH WIND       PRES   REMARKS
JONESBORO      MOSUNNY   91  69  48 VRB5      29.94F HX  96
NEWPORT        MOSUNNY   94  65  38 VRB5      29.95F HX  96
WALNUT RIDGE   SUNNY     91  64  40 W8        29.93F HX  93
BLYTHEVILLE    SUNNY     91  74  57 NW5       29.94F HX 100
$$

ARZ022-023-033-042-044-022000-
CENTRAL ARKANSAS

CITY           SKY/WX    TMP DP  RH WIND       PRES   REMARKS
LITTLE ROCK    MOSUNNY   96  64  34 VRB7      29.94F HX  98
N LITTLE ROCK  MOSUNNY   93  66  40 SE8       29.94F HX  95
JACKSONVILLE   MOSUNNY   96  64  34 VRB2      29.93F HX  97
SEARCY         SUNNY     94  69  44 S8        29.95F HX  99
HOT SPRINGS    MOSUNNY   96  55  25 VRB6      29.95F HX  94
RUSSELLVILLE   SUNNY     95  59  30 SW8       29.94F HX  94
$$

ARZ036-022000-
EAST ARKANSAS

CITY           SKY/WX    TMP DP  RH WIND       PRES   REMARKS
WEST MEMPHIS   PTSUNNY   91  72  53 CALM      29.94F HX  98
$$

ARZ050-053-066-070-073-022000-
SOUTHWEST ARKANSAS

CITY           SKY/WX    TMP DP  RH WIND       PRES   REMARKS
ARKADELPHIA    FAIR      98  61  29 VRB5      29.95F HX  98
CAMDEN         SUNNY     95  59  30 NW6       29.94F HX  94
TEXARKANA      SUNNY     95  58  28 NE7       29.95F HX  94
EL DORADO      SUNNY     95  58  28 VRB7      29.95F HX  94
DE QUEEN       SUNNY     95  59  30 VRB6      29.93F HX  94
$$

ARZ056-057-069-022000-
SOUTHEAST ARKANSAS

CITY           SKY/WX    TMP DP  RH WIND       PRES   REMARKS
PINE BLUFF     SUNNY     94  64  37 E8        29.95F HX  95
STUTTGART      SUNNY     91  64  40 N3        29.95F HX  93
MONTICELLO     SUNNY     95  63  34 CALM      29.94F HX  96

$$




USA.gov is the U.S. government's official web portal to all federal, state and local government web resources and services.